Location: Newark
(48.6676°N, 6.1917°E)
Time: 08:06:58
(UTC+00:00)

N. Korean satellite - Pass Details

Date: 08 December 2019
Orbit: 454 x 507 km, 97.2° (Epoch: 27 January)

Event Time Altitude Azimuth Distance (km) Brightness Sun altitude
Rises 16:28:46 0° 165° (SSE) 2,601 10.4 -7.9°
Reaches altitude 10° 16:30:51 10° 166° (SSE) 1,721 9.5 -8.2°
Maximum altitude 16:34:34 89° 91° (E) 514 6.6 -8.7°
Drops below altitude 10° 16:38:18 10° 348° (NNW) 1,725 9.2 -9.3°
Sets 16:40:23 0° 348° (NNW) 2,609 10.2 -9.6°
